User: anonymous   Login
Location: Unspecified
(0.0000°N, 0.0000°E)
Time: 11:37:37
(UTC+00:00)
Language:

HO-68 - Orbit

View from above orbital plane
View from above orbital plane
View from above satellite
View from above satellite

Ground track
Ground track

The orbit data is extracted from the following two-line orbital elements,

1 36122U 09072B   16209.03724775 -.00000037  00000-0  16050-4 0  9992
2 36122 100.1398 243.2787 0006776 264.3896  95.6445 13.16335231317850
Epoch (UTC): 27 July 2016 00:53:38
Eccentricity: 0.0006776
inclination: 100.1398°
perigee height: 1193 km
apogee height: 1204 km
right ascension of ascending node: 243.2787°
argument of perigee: 264.3896°
revolutions per day: 13.16335231
mean anomaly at epoch: 95.6445°
orbit number at epoch: 31785

The dashed part of the orbit path shows where the satellite is in the earth's shadow,  

DLR